Time,TemperatureF,DewpointF,PressureIn,WindDirection,WindDirectionDegrees,WindSpeedMPH,WindSpeedGustMPH,Humidity,HourlyPrecipIn,Conditions,Clouds,dailyrainin,SoftwareType,DateUTC
2013-04-06 00:00:00,49.3,23.5,30.06,NW,318,1.0,6.0,36,0.00,,,0.17,meteohub,2013-04-06 04:00:00,
2013-04-06 00:05:00,48.9,23.2,30.06,NW,324,2.0,6.0,36,0.00,,,0.00,meteohub,2013-04-06 04:05:00,
2013-04-06 00:11:00,48.7,23.5,30.06,NW,319,2.0,5.0,37,0.00,,,0.00,meteohub,2013-04-06 04:11:00,
2013-04-06 00:15:00,48.4,23.9,30.06,NW,319,1.0,5.0,38,0.00,,,0.00,meteohub,2013-04-06 04:15:00,
2013-04-06 00:21:00,48.0,24.3,30.07,North,355,2.0,4.0,39,0.00,,,0.00,meteohub,2013-04-06 04:21:00,
2013-04-06 00:26:00,47.8,24.6,30.07,NNW,329,0.0,4.0,40,0.00,,,0.00,meteohub,2013-04-06 04:26:00,
2013-04-06 00:31:00,47.5,23.7,30.08,North,5,2.0,4.0,39,0.00,,,0.00,meteohub,2013-04-06 04:31:00,
2013-04-06 00:36:00,46.9,23.2,30.08,NNW,340,2.0,4.0,39,0.00,,,0.00,meteohub,2013-04-06 04:36:00,
2013-04-06 00:41:00,46.8,23.2,30.08,NNW,348,0.0,3.0,39,0.00,,,0.00,meteohub,2013-04-06 04:41:00,
2013-04-06 00:46:00,46.4,22.8,30.08,NNW,339,1.0,4.0,39,0.00,,,0.00,meteohub,2013-04-06 04:46:00,
2013-04-06 00:51:00,46.2,23.9,30.08,NNW,339,0.0,4.0,41,0.00,,,0.00,meteohub,2013-04-06 04:51:00,
2013-04-06 00:56:00,46.0,23.0,30.09,NNW,348,2.0,4.0,40,0.00,,,0.00,meteohub,2013-04-06 04:56:00,
2013-04-06 01:01:00,45.9,22.8,30.09,NW,319,0.0,4.0,40,0.00,,,0.00,meteohub,2013-04-06 05:01:00,
2013-04-06 01:06:00,45.7,22.8,30.09,WNW,288,1.0,4.0,40,0.00,,,0.00,meteohub,2013-04-06 05:06:00,
2013-04-06 01:11:00,45.5,21.9,30.09,NNW,346,2.0,4.0,39,0.00,,,0.00,meteohub,2013-04-06 05:11:00,
2013-04-06 01:17:00,45.5,22.6,30.09,NW,312,1.0,5.0,40,0.00,,,0.00,meteohub,2013-04-06 05:17:00,
2013-04-06 01:22:00,45.5,21.9,30.10,NW,319,0.0,5.0,39,0.00,,,0.00,meteohub,2013-04-06 05:22:00,
2013-04-06 01:27:00,45.3,21.7,30.10,North,355,1.0,6.0,39,0.00,,,0.00,meteohub,2013-04-06 05:27:00,
2013-04-06 01:32:00,45.0,22.1,30.10,NNW,336,2.0,6.0,40,0.00,,,0.00,meteohub,2013-04-06 05:32:00,
2013-04-06 01:37:00,44.8,21.9,30.10,NW,325,2.0,6.0,40,0.00,,,0.00,meteohub,2013-04-06 05:37:00,
2013-04-06 01:42:00,44.6,21.7,30.10,WNW,296,3.0,3.0,40,0.00,,,0.00,meteohub,2013-04-06 05:42:00,
2013-04-06 01:47:00,44.4,21.6,30.11,NW,319,0.0,4.0,40,0.00,,,0.00,meteohub,2013-04-06 05:47:00,
2013-04-06 01:52:00,44.2,20.8,30.11,NNW,338,0.0,4.0,39,0.00,,,0.00,meteohub,2013-04-06 05:52:00,
2013-04-06 01:57:00,43.9,21.2,30.12,NNW,344,2.0,4.0,40,0.00,,,0.00,meteohub,2013-04-06 05:57:00,
2013-04-06 02:02:00,43.7,21.0,30.12,NNW,330,0.0,4.0,40,0.00,,,0.00,meteohub,2013-04-06 06:02:00,
2013-04-06 02:07:00,43.3,20.1,30.12,NW,311,3.0,3.0,39,0.00,,,0.00,meteohub,2013-04-06 06:07:00,
2013-04-06 02:12:00,43.3,20.1,30.12,NW,320,3.0,5.0,39,0.00,,,0.00,meteohub,2013-04-06 06:12:00,
2013-04-06 02:17:00,43.5,20.8,30.12,NW,317,1.0,5.0,40,0.00,,,0.00,meteohub,2013-04-06 06:17:00,
2013-04-06 02:22:00,43.3,20.7,30.12,NNW,336,2.0,5.0,40,0.00,,,0.00,meteohub,2013-04-06 06:22:00,
2013-04-06 02:27:00,43.2,20.5,30.12,NNW,348,1.0,5.0,40,0.00,,,0.00,meteohub,2013-04-06 06:27:00,
2013-04-06 02:32:00,43.0,20.3,30.12,WNW,287,2.0,5.0,40,0.00,,,0.00,meteohub,2013-04-06 06:32:00,
2013-04-06 02:37:00,43.0,20.8,30.12,WNW,287,0.0,5.0,41,0.00,,,0.00,meteohub,2013-04-06 06:37:00,
2013-04-06 02:42:00,42.6,19.9,30.13,NW,312,1.0,5.0,40,0.00,,,0.00,meteohub,2013-04-06 06:42:00,
2013-04-06 02:48:00,42.4,20.5,30.13,NW,312,0.0,3.0,41,0.00,,,0.00,meteohub,2013-04-06 06:48:00,
2013-04-06 02:53:00,42.1,21.2,30.13,North,9,1.0,3.0,43,0.00,,,0.00,meteohub,2013-04-06 06:53:00,
2013-04-06 02:58:00,41.7,20.8,30.13,NW,315,4.0,4.0,43,0.00,,,0.00,meteohub,2013-04-06 06:58:00,
2013-04-06 03:05:00,41.9,20.5,30.13,North,355,3.0,4.0,42,0.00,,,0.00,meteohub,2013-04-06 07:05:00,
2013-04-06 03:10:00,42.1,20.7,30.14,NW,325,0.0,5.0,42,0.00,,,0.00,meteohub,2013-04-06 07:10:00,
2013-04-06 03:15:00,42.1,20.7,30.14,NW,315,1.0,5.0,42,0.00,,,0.00,meteohub,2013-04-06 07:15:00,
2013-04-06 03:20:00,41.7,20.8,30.13,NW,309,0.0,4.0,43,0.00,,,0.00,meteohub,2013-04-06 07:20:00,
2013-04-06 03:26:00,41.5,20.7,30.13,NNW,329,1.0,4.0,43,0.00,,,0.00,meteohub,2013-04-06 07:26:00,
2013-04-06 03:31:00,41.4,20.5,30.14,NW,323,2.0,4.0,43,0.00,,,0.00,meteohub,2013-04-06 07:31:00,
2013-04-06 03:37:00,41.2,21.4,30.14,North,355,3.0,4.0,45,0.00,,,0.00,meteohub,2013-04-06 07:37:00,
2013-04-06 03:42:00,40.8,21.2,30.14,NNW,336,0.0,3.0,45,0.00,,,0.00,meteohub,2013-04-06 07:42:00,
2013-04-06 03:47:00,40.6,21.6,30.14,NW,317,0.0,3.0,46,0.00,,,0.00,meteohub,2013-04-06 07:47:00,
2013-04-06 03:52:00,40.5,21.4,30.15,NNW,346,1.0,5.0,46,0.00,,,0.00,meteohub,2013-04-06 07:52:00,
2013-04-06 03:57:00,40.5,21.7,30.15,NW,304,1.0,5.0,47,0.00,,,0.00,meteohub,2013-04-06 07:57:00,
2013-04-06 04:02:00,40.3,21.7,30.16,NNW,345,0.0,5.0,47,0.00,,,0.00,meteohub,2013-04-06 08:02:00,
2013-04-06 04:07:00,40.3,21.7,30.16,NNW,346,1.0,3.0,47,0.00,,,0.00,meteohub,2013-04-06 08:07:00,
2013-04-06 04:12:00,40.1,21.9,30.16,NW,314,3.0,3.0,48,0.00,,,0.00,meteohub,2013-04-06 08:12:00,
2013-04-06 04:17:00,40.1,21.9,30.17,WNW,300,2.0,3.0,48,0.00,,,0.00,meteohub,2013-04-06 08:17:00,
2013-04-06 04:22:00,40.1,22.5,30.17,NNW,334,2.0,4.0,49,0.00,,,0.00,meteohub,2013-04-06 08:22:00,
2013-04-06 04:27:00,39.9,22.3,30.17,NW,310,4.0,4.0,49,0.00,,,0.00,meteohub,2013-04-06 08:27:00,
2013-04-06 04:32:00,39.9,22.3,30.17,NW,321,0.0,6.0,49,0.00,,,0.00,meteohub,2013-04-06 08:32:00,
2013-04-06 04:37:00,39.7,22.1,30.17,NNW,342,1.0,6.0,49,0.00,,,0.00,meteohub,2013-04-06 08:37:00,
2013-04-06 04:42:00,39.7,22.6,30.17,NNW,348,1.0,6.0,50,0.00,,,0.00,meteohub,2013-04-06 08:42:00,
2013-04-06 04:47:00,39.6,22.5,30.18,WNW,298,1.0,4.0,50,0.00,,,0.00,meteohub,2013-04-06 08:47:00,
2013-04-06 04:52:00,39.4,22.3,30.18,WNW,298,0.0,4.0,50,0.00,,,0.00,meteohub,2013-04-06 08:52:00,
2013-04-06 04:57:00,39.2,22.6,30.18,NW,325,0.0,4.0,51,0.00,,,0.00,meteohub,2013-04-06 08:57:00,
2013-04-06 05:03:00,39.0,22.5,30.18,NW,325,1.0,3.0,51,0.00,,,0.00,meteohub,2013-04-06 09:03:00,
2013-04-06 05:08:00,38.8,22.6,30.19,NW,325,0.0,3.0,52,0.00,,,0.00,meteohub,2013-04-06 09:08:00,
2013-04-06 05:13:00,38.5,22.5,30.19,NW,315,1.0,2.0,52,0.00,,,0.00,meteohub,2013-04-06 09:13:00,
2013-04-06 05:18:00,38.3,22.6,30.19,NW,315,2.0,4.0,53,0.00,,,0.00,meteohub,2013-04-06 09:18:00,
2013-04-06 05:23:00,38.1,22.5,30.19,North,355,0.0,4.0,53,0.00,,,0.00,meteohub,2013-04-06 09:23:00,
2013-04-06 05:28:00,38.1,22.5,30.20,NNW,336,1.0,3.0,53,0.00,,,0.00,meteohub,2013-04-06 09:28:00,
2013-04-06 05:33:00,37.9,22.3,30.20,NNW,336,0.0,3.0,53,0.00,,,0.00,meteohub,2013-04-06 09:33:00,
2013-04-06 05:38:00,37.9,22.3,30.20,NNW,336,0.0,3.0,53,0.00,,,0.00,meteohub,2013-04-06 09:38:00,
2013-04-06 05:44:00,37.8,22.6,30.20,NNW,327,1.0,3.0,54,0.00,,,0.00,meteohub,2013-04-06 09:44:00,
2013-04-06 05:51:00,37.6,22.5,30.21,NNW,327,0.0,2.0,54,0.00,,,0.00,meteohub,2013-04-06 09:51:00,
2013-04-06 05:56:00,37.0,22.5,30.22,NNW,327,1.0,2.0,55,0.00,,,0.00,meteohub,2013-04-06 09:56:00,
2013-04-06 06:01:00,36.9,22.6,30.22,NNW,327,1.0,2.0,56,0.00,,,0.00,meteohub,2013-04-06 10:01:00,
2013-04-06 06:06:00,36.7,22.5,30.22,NNW,327,0.0,2.0,56,0.00,,,0.00,meteohub,2013-04-06 10:06:00,
2013-04-06 06:12:00,36.3,22.5,30.23,NNW,327,0.0,2.0,57,0.00,,,0.00,meteohub,2013-04-06 10:12:00,
2013-04-06 06:17:00,36.1,22.5,30.23,NNW,327,1.0,2.0,57,0.00,,,0.00,meteohub,2013-04-06 10:17:00,
2013-04-06 06:22:00,36.1,21.9,30.24,NNW,327,0.0,2.0,56,0.00,,,0.00,meteohub,2013-04-06 10:22:00,
2013-04-06 06:27:00,36.0,22.3,30.24,NNW,327,0.0,3.0,57,0.00,,,0.00,meteohub,2013-04-06 10:27:00,
2013-04-06 06:32:00,36.0,22.3,30.24,NNW,327,0.0,3.0,57,0.00,,,0.00,meteohub,2013-04-06 10:32:00,
2013-04-06 06:37:00,35.8,22.8,30.24,NNW,327,0.0,2.0,59,0.00,,,0.00,meteohub,2013-04-06 10:37:00,
2013-04-06 06:42:00,35.6,22.6,30.25,NNW,327,0.0,2.0,59,0.00,,,0.00,meteohub,2013-04-06 10:42:00,
2013-04-06 06:47:00,35.4,23.0,30.25,NNW,327,0.0,2.0,60,0.00,,,0.00,meteohub,2013-04-06 10:47:00,
2013-04-06 06:52:00,35.2,22.8,30.26,NNW,327,0.0,2.0,60,0.00,,,0.00,meteohub,2013-04-06 10:52:00,
2013-04-06 06:57:00,35.1,22.6,30.26,NNW,327,0.0,0.0,60,0.00,,,0.00,meteohub,2013-04-06 10:57:00,
2013-04-06 07:02:00,34.9,22.8,30.27,NNW,327,0.0,0.0,61,0.00,,,0.00,meteohub,2013-04-06 11:02:00,
2013-04-06 07:07:00,34.7,22.6,30.27,NNW,327,0.0,0.0,61,0.00,,,0.00,meteohub,2013-04-06 11:07:00,
2013-04-06 07:12:00,34.5,22.8,30.27,NNW,327,0.0,0.0,62,0.00,,,0.00,meteohub,2013-04-06 11:12:00,
2013-04-06 07:17:00,34.5,22.8,30.28,NNW,327,1.0,1.0,62,0.00,,,0.00,meteohub,2013-04-06 11:17:00,
2013-04-06 07:22:00,34.5,22.8,30.28,NNW,327,1.0,3.0,62,0.00,,,0.00,meteohub,2013-04-06 11:22:00,
2013-04-06 07:27:00,34.5,22.8,30.29,NNW,327,1.0,3.0,62,0.00,,,0.00,meteohub,2013-04-06 11:27:00,
2013-04-06 07:32:00,34.9,23.2,30.29,NNW,327,2.0,3.0,62,0.00,,,0.00,meteohub,2013-04-06 11:32:00,
2013-04-06 07:33:00,34.9,23.2,30.29,NNW,327,1.0,3.0,62,0.00,,,0.00,meteohub,2013-04-06 11:33:00,
2013-04-06 07:38:00,35.8,22.8,30.29,NNW,331,0.0,3.0,59,0.00,,,0.00,meteohub,2013-04-06 11:38:00,
2013-04-06 07:43:00,36.3,23.0,30.29,North,349,0.0,4.0,58,0.00,,,0.00,meteohub,2013-04-06 11:43:00,
2013-04-06 07:48:00,36.9,22.6,30.29,NW,317,1.0,4.0,56,0.00,,,0.00,meteohub,2013-04-06 11:48:00,
2013-04-06 07:53:00,37.4,23.5,30.30,NW,319,1.0,5.0,57,0.00,,,0.00,meteohub,2013-04-06 11:53:00,
2013-04-06 07:58:00,37.8,23.9,30.30,NW,319,1.0,5.0,57,0.00,,,0.00,meteohub,2013-04-06 11:58:00,
2013-04-06 08:03:00,38.5,23.7,30.29,NNE,16,1.0,5.0,55,0.00,,,0.00,meteohub,2013-04-06 12:03:00,
2013-04-06 08:08:00,38.8,24.1,30.30,NNE,13,0.0,6.0,55,0.00,,,0.00,meteohub,2013-04-06 12:08:00,
2013-04-06 08:13:00,39.4,23.7,30.30,NW,304,2.0,6.0,53,0.00,,,0.00,meteohub,2013-04-06 12:13:00,
2013-04-06 08:18:00,39.7,23.5,30.30,ENE,59,0.0,6.0,52,0.00,,,0.00,meteohub,2013-04-06 12:18:00,
2013-04-06 08:23:00,40.3,23.5,30.31,NE,54,2.0,6.0,51,0.00,,,0.00,meteohub,2013-04-06 12:23:00,
2013-04-06 08:28:00,40.6,23.0,30.31,NW,315,4.0,7.0,49,0.00,,,0.00,meteohub,2013-04-06 12:28:00,
2013-04-06 08:33:00,40.8,23.2,30.31,NNW,344,2.0,7.0,49,0.00,,,0.00,meteohub,2013-04-06 12:33:00,
2013-04-06 08:38:00,41.2,23.5,30.31,NW,309,2.0,7.0,49,0.00,,,0.00,meteohub,2013-04-06 12:38:00,
2013-04-06 08:46:00,41.7,23.5,30.32,NW,312,3.0,5.0,48,0.00,,,0.00,meteohub,2013-04-06 12:46:00,
2013-04-06 08:51:00,42.6,23.7,30.32,NNW,338,4.0,5.0,47,0.00,,,0.00,meteohub,2013-04-06 12:51:00,
2013-04-06 08:57:00,43.2,23.7,30.32,NW,313,3.0,5.0,46,0.00,,,0.00,meteohub,2013-04-06 12:57:00,
2013-04-06 09:02:00,43.5,24.6,30.32,NE,36,1.0,5.0,47,0.00,,,0.00,meteohub,2013-04-06 13:02:00,
2013-04-06 09:07:00,44.2,24.8,30.32,ENE,67,4.0,9.0,46,0.00,,,0.00,meteohub,2013-04-06 13:07:00,
2013-04-06 09:12:00,45.1,24.4,30.33,NE,41,2.0,9.0,44,0.00,,,0.00,meteohub,2013-04-06 13:12:00,
2013-04-06 09:17:00,46.0,25.3,30.33,NNW,340,4.0,9.0,44,0.00,,,0.00,meteohub,2013-04-06 13:17:00,
2013-04-06 09:22:00,46.0,25.3,30.33,NNW,346,0.0,6.0,44,0.00,,,0.00,meteohub,2013-04-06 13:22:00,
2013-04-06 09:27:00,46.2,25.5,30.33,NNW,338,1.0,6.0,44,0.00,,,0.00,meteohub,2013-04-06 13:27:00,
2013-04-06 09:32:00,46.2,23.9,30.33,NNW,327,0.0,6.0,41,0.00,,,0.00,meteohub,2013-04-06 13:32:00,
2013-04-06 09:37:00,46.2,25.5,30.33,North,5,1.0,6.0,44,0.00,,,0.00,meteohub,2013-04-06 13:37:00,
2013-04-06 09:42:00,46.0,24.3,30.34,NE,51,4.0,5.0,42,0.00,,,0.00,meteohub,2013-04-06 13:42:00,
2013-04-06 09:47:00,46.4,26.2,30.34,NE,37,3.0,6.0,45,0.00,,,0.00,meteohub,2013-04-06 13:47:00,
2013-04-06 09:54:00,46.8,24.8,30.34,WNW,293,2.0,6.0,42,0.00,,,0.00,meteohub,2013-04-06 13:54:00,
2013-04-06 09:59:00,46.4,25.2,30.34,WNW,298,3.0,6.0,43,0.00,,,0.00,meteohub,2013-04-06 13:59:00,
2013-04-06 10:04:00,46.8,24.8,30.34,WNW,294,3.0,6.0,42,0.00,,,0.00,meteohub,2013-04-06 14:04:00,
2013-04-06 10:09:00,46.9,26.2,30.34,East,101,2.0,6.0,44,0.00,,,0.00,meteohub,2013-04-06 14:09:00,
2013-04-06 10:15:00,47.8,24.6,30.34,NW,319,3.0,5.0,40,0.00,,,0.00,meteohub,2013-04-06 14:15:00,
2013-04-06 10:20:00,47.7,26.2,30.34,NW,320,0.0,6.0,43,0.00,,,0.00,meteohub,2013-04-06 14:20:00,
2013-04-06 10:25:00,47.8,25.9,30.34,NW,319,1.0,6.0,42,0.00,,,0.00,meteohub,2013-04-06 14:25:00,
2013-04-06 10:30:00,47.8,26.4,30.34,NNW,329,2.0,6.0,43,0.00,,,0.00,meteohub,2013-04-06 14:30:00,
2013-04-06 10:35:00,48.0,24.8,30.34,NNW,333,3.0,6.0,40,0.00,,,0.00,meteohub,2013-04-06 14:35:00,
2013-04-06 10:40:00,48.9,25.7,30.34,South,190,3.0,6.0,40,0.00,,,0.00,meteohub,2013-04-06 14:40:00,
2013-04-06 10:45:00,49.5,25.5,30.35,NNW,348,4.0,6.0,39,0.00,,,0.00,meteohub,2013-04-06 14:45:00,
2013-04-06 10:50:00,49.3,26.6,30.35,NW,311,2.0,6.0,41,0.00,,,0.00,meteohub,2013-04-06 14:50:00,
2013-04-06 10:55:00,48.6,25.9,30.35,East,93,2.0,6.0,41,0.00,,,0.00,meteohub,2013-04-06 14:55:00,
2013-04-06 11:00:00,49.1,24.6,30.35,SSE,150,1.0,6.0,38,0.00,,,0.00,meteohub,2013-04-06 15:00:00,
2013-04-06 11:07:00,49.1,25.2,30.35,WNW,294,2.0,6.0,39,0.00,,,0.00,meteohub,2013-04-06 15:07:00,
2013-04-06 11:12:00,48.6,25.9,30.35,North,10,2.0,7.0,41,0.00,,,0.00,meteohub,2013-04-06 15:12:00,
2013-04-06 11:17:00,48.6,25.3,30.35,NW,311,3.0,7.0,40,0.00,,,0.00,meteohub,2013-04-06 15:17:00,
2013-04-06 11:22:00,48.6,26.4,30.35,NW,309,3.0,7.0,42,0.00,,,0.00,meteohub,2013-04-06 15:22:00,
2013-04-06 11:27:00,48.7,26.1,30.34,NNW,331,2.0,5.0,41,0.00,,,0.00,meteohub,2013-04-06 15:27:00,
2013-04-06 11:32:00,49.5,27.3,30.35,NNW,335,4.0,5.0,42,0.00,,,0.00,meteohub,2013-04-06 15:32:00,
2013-04-06 11:37:00,49.6,23.7,30.34,NNW,333,3.0,5.0,36,0.00,,,0.00,meteohub,2013-04-06 15:37:00,
2013-04-06 11:42:00,49.8,25.9,30.35,NE,42,0.0,5.0,39,0.00,,,0.00,meteohub,2013-04-06 15:42:00,
2013-04-06 11:50:00,49.8,25.2,30.34,NNW,327,6.0,6.0,38,0.00,,,0.00,meteohub,2013-04-06 15:50:00,
2013-04-06 11:55:00,49.3,26.1,30.34,SW,227,0.0,6.0,40,0.00,,,0.00,meteohub,2013-04-06 15:55:00,
2013-04-06 12:00:00,50.4,26.4,30.34,SE,142,0.0,6.0,39,0.00,,,0.00,meteohub,2013-04-06 16:00:00,
2013-04-06 12:05:00,51.4,27.9,30.34,NW,309,2.0,6.0,40,0.00,,,0.00,meteohub,2013-04-06 16:05:00,
2013-04-06 12:10:00,51.4,24.6,30.34,NW,304,3.0,6.0,35,0.00,,,0.00,meteohub,2013-04-06 16:10:00,
2013-04-06 12:15:00,51.4,29.1,30.34,SSW,207,0.0,6.0,42,0.00,,,0.00,meteohub,2013-04-06 16:15:00,
2013-04-06 12:20:00,52.5,25.7,30.34,NW,318,3.0,6.0,35,0.00,,,0.00,meteohub,2013-04-06 16:20:00,
2013-04-06 12:25:00,52.3,27.5,30.33,West,261,0.0,5.0,38,0.00,,,0.00,meteohub,2013-04-06 16:25:00,
2013-04-06 12:30:00,52.5,27.7,30.33,NNW,346,1.0,5.0,38,0.00,,,0.00,meteohub,2013-04-06 16:30:00,
2013-04-06 12:35:00,53.1,28.8,30.34,WNW,290,1.0,4.0,39,0.00,,,0.00,meteohub,2013-04-06 16:35:00,
2013-04-06 12:41:00,54.0,26.2,30.33,South,169,0.0,3.0,34,0.00,,,0.00,meteohub,2013-04-06 16:41:00,
2013-04-06 12:46:00,54.9,29.1,30.33,SE,129,0.0,6.0,37,0.00,,,0.00,meteohub,2013-04-06 16:46:00,
2013-04-06 12:50:00,55.2,25.2,30.33,East,96,2.0,6.0,31,0.00,,,0.00,meteohub,2013-04-06 16:50:00,
2013-04-06 12:56:00,55.4,23.7,30.33,SSE,164,3.0,5.0,29,0.00,,,0.00,meteohub,2013-04-06 16:56:00,
2013-04-06 13:01:00,54.9,23.2,30.33,South,179,2.0,6.0,29,0.00,,,0.00,meteohub,2013-04-06 17:01:00,
2013-04-06 13:06:00,54.7,25.3,30.33,WSW,245,0.0,6.0,32,0.00,,,0.00,meteohub,2013-04-06 17:06:00,
2013-04-06 13:11:00,55.4,24.4,30.33,SE,128,3.0,6.0,30,0.00,,,0.00,meteohub,2013-04-06 17:11:00,
2013-04-06 13:16:00,55.6,28.4,30.33,South,184,0.0,5.0,35,0.00,,,0.00,meteohub,2013-04-06 17:16:00,
2013-04-06 13:21:00,54.3,22.6,30.33,WNW,295,3.0,5.0,29,0.00,,,0.00,meteohub,2013-04-06 17:21:00,
2013-04-06 13:26:00,53.2,27.0,30.32,West,265,0.0,6.0,36,0.00,,,0.00,meteohub,2013-04-06 17:26:00,
2013-04-06 13:31:00,53.8,23.0,30.32,West,265,0.0,6.0,30,0.00,,,0.00,meteohub,2013-04-06 17:31:00,
2013-04-06 13:37:00,54.3,25.2,30.32,NW,324,3.0,6.0,32,0.00,,,0.00,meteohub,2013-04-06 17:37:00,
2013-04-06 13:42:00,53.2,22.6,30.32,WNW,302,4.0,7.0,30,0.00,,,0.00,meteohub,2013-04-06 17:42:00,
2013-04-06 13:47:00,53.2,24.1,30.32,WNW,293,1.0,7.0,32,0.00,,,0.00,meteohub,2013-04-06 17:47:00,
2013-04-06 13:52:00,54.1,25.0,30.32,West,264,0.0,7.0,32,0.00,,,0.00,meteohub,2013-04-06 17:52:00,
2013-04-06 13:57:00,55.0,25.0,30.32,West,281,0.0,6.0,31,0.00,,,0.00,meteohub,2013-04-06 17:57:00,
2013-04-06 14:02:00,55.8,24.8,30.32,NNE,19,0.0,6.0,30,0.00,,,0.00,meteohub,2013-04-06 18:02:00,
2013-04-06 14:07:00,56.5,27.0,30.32,WNW,290,2.0,6.0,32,0.00,,,0.00,meteohub,2013-04-06 18:07:00,
2013-04-06 14:12:00,57.0,26.6,30.31,South,182,2.0,6.0,31,0.00,,,0.00,meteohub,2013-04-06 18:12:00,
2013-04-06 14:17:00,57.7,26.4,30.31,WSW,248,0.0,5.0,30,0.00,,,0.00,meteohub,2013-04-06 18:17:00,
2013-04-06 14:22:00,57.9,25.0,30.31,South,177,0.0,5.0,28,0.00,,,0.00,meteohub,2013-04-06 18:22:00,
2013-04-06 14:27:00,57.6,23.9,30.31,NNW,343,0.0,5.0,27,0.00,,,0.00,meteohub,2013-04-06 18:27:00,
2013-04-06 14:32:00,57.2,23.5,30.31,SSE,165,2.0,5.0,27,0.00,,,0.00,meteohub,2013-04-06 18:32:00,
2013-04-06 14:37:00,57.2,23.5,30.31,SE,127,2.0,5.0,27,0.00,,,0.00,meteohub,2013-04-06 18:37:00,
2013-04-06 14:42:00,57.7,24.8,30.30,SSW,193,2.0,5.0,28,0.00,,,0.00,meteohub,2013-04-06 18:42:00,
2013-04-06 14:47:00,57.7,23.0,30.30,SE,126,2.0,5.0,26,0.00,,,0.00,meteohub,2013-04-06 18:47:00,
2013-04-06 14:52:00,57.6,23.0,30.30,South,173,4.0,5.0,26,0.00,,,0.00,meteohub,2013-04-06 18:52:00,
2013-04-06 14:57:00,57.4,26.2,30.30,SSW,192,3.0,8.0,30,0.00,,,0.00,meteohub,2013-04-06 18:57:00,
2013-04-06 15:02:00,57.7,25.7,30.29,South,169,1.0,8.0,29,0.00,,,0.00,meteohub,2013-04-06 19:02:00,
2013-04-06 15:08:00,57.6,27.9,30.29,SW,219,1.0,8.0,32,0.00,,,0.00,meteohub,2013-04-06 19:08:00,
2013-04-06 15:13:00,57.4,24.6,30.29,South,182,2.0,5.0,28,0.00,,,0.00,meteohub,2013-04-06 19:13:00,
2013-04-06 15:18:00,57.6,24.6,30.29,West,276,1.0,5.0,28,0.00,,,0.00,meteohub,2013-04-06 19:18:00,
2013-04-06 15:23:00,57.0,25.9,30.28,NW,321,0.0,5.0,30,0.00,,,0.00,meteohub,2013-04-06 19:23:00,
2013-04-06 15:28:00,57.0,24.3,30.28,SSE,157,2.0,5.0,28,0.00,,,0.00,meteohub,2013-04-06 19:28:00,
2013-04-06 15:33:00,57.4,21.9,30.28,South,169,2.0,6.0,25,0.00,,,0.00,meteohub,2013-04-06 19:33:00,
2013-04-06 15:38:00,57.4,20.8,30.28,SE,126,0.0,8.0,24,0.00,,,0.00,meteohub,2013-04-06 19:38:00,
2013-04-06 15:43:00,57.4,23.7,30.28,SSE,166,4.0,8.0,27,0.00,,,0.00,meteohub,2013-04-06 19:43:00,
2013-04-06 15:48:00,57.4,23.7,30.27,NW,309,2.0,8.0,27,0.00,,,0.00,meteohub,2013-04-06 19:48:00,
2013-04-06 15:53:00,56.8,22.3,30.27,North,11,2.0,5.0,26,0.00,,,0.00,meteohub,2013-04-06 19:53:00,
2013-04-06 15:58:00,57.2,23.5,30.27,South,171,2.0,5.0,27,0.00,,,0.00,meteohub,2013-04-06 19:58:00,
2013-04-06 16:04:00,57.2,21.7,30.27,ESE,109,4.0,5.0,25,0.00,,,0.00,meteohub,2013-04-06 20:04:00,
2013-04-06 16:09:00,57.6,23.0,30.27,SE,132,1.0,5.0,26,0.00,,,0.00,meteohub,2013-04-06 20:09:00,
2013-04-06 16:14:00,57.4,23.7,30.27,NE,54,3.0,5.0,27,0.00,,,0.00,meteohub,2013-04-06 20:14:00,
2013-04-06 16:19:00,57.0,21.6,30.27,SE,138,0.0,6.0,25,0.00,,,0.00,meteohub,2013-04-06 20:19:00,
2013-04-06 16:24:00,57.0,22.5,30.27,SSE,148,2.0,6.0,26,0.00,,,0.00,meteohub,2013-04-06 20:24:00,
2013-04-06 16:29:00,56.8,21.4,30.27,SSW,196,2.0,5.0,25,0.00,,,0.00,meteohub,2013-04-06 20:29:00,
2013-04-06 16:34:00,56.5,22.8,30.27,SSW,196,1.0,6.0,27,0.00,,,0.00,meteohub,2013-04-06 20:34:00,
2013-04-06 16:39:00,56.3,20.8,30.26,SW,222,1.0,6.0,25,0.00,,,0.00,meteohub,2013-04-06 20:39:00,
2013-04-06 16:44:00,56.3,23.5,30.26,NW,323,0.0,6.0,28,0.00,,,0.00,meteohub,2013-04-06 20:44:00,
2013-04-06 16:49:00,56.5,23.7,30.26,SSE,157,4.0,5.0,28,0.00,,,0.00,meteohub,2013-04-06 20:49:00,
2013-04-06 16:55:00,56.5,22.8,30.26,SSE,159,2.0,5.0,27,0.00,,,0.00,meteohub,2013-04-06 20:55:00,
2013-04-06 17:00:00,56.5,19.0,30.26,SSE,161,2.0,4.0,23,0.00,,,0.00,meteohub,2013-04-06 21:00:00,
2013-04-06 17:05:00,56.1,20.8,30.27,SW,214,0.0,7.0,25,0.00,,,0.00,meteohub,2013-04-06 21:05:00,
2013-04-06 17:10:00,55.9,21.6,30.27,SSE,163,3.0,7.0,26,0.00,,,0.00,meteohub,2013-04-06 21:10:00,
2013-04-06 17:15:00,55.8,22.3,30.27,WNW,292,1.0,7.0,27,0.00,,,0.00,meteohub,2013-04-06 21:15:00,
2013-04-06 17:20:00,55.6,21.2,30.27,SE,127,0.0,6.0,26,0.00,,,0.00,meteohub,2013-04-06 21:20:00,
2013-04-06 17:25:00,55.8,21.4,30.26,SW,221,4.0,5.0,26,0.00,,,0.00,meteohub,2013-04-06 21:25:00,
2013-04-06 17:30:00,55.8,21.4,30.26,South,173,4.0,6.0,26,0.00,,,0.00,meteohub,2013-04-06 21:30:00,
2013-04-06 17:35:00,55.6,23.0,30.26,ESE,113,1.0,6.0,28,0.00,,,0.00,meteohub,2013-04-06 21:35:00,
2013-04-06 17:40:00,55.6,21.2,30.26,SSE,159,2.0,6.0,26,0.00,,,0.00,meteohub,2013-04-06 21:40:00,
2013-04-06 17:45:00,55.2,21.7,30.26,South,189,2.0,6.0,27,0.00,,,0.00,meteohub,2013-04-06 21:45:00,
2013-04-06 17:50:00,55.0,21.7,30.27,SW,215,3.0,5.0,27,0.00,,,0.00,meteohub,2013-04-06 21:50:00,
2013-04-06 17:55:00,55.0,21.7,30.27,SSW,205,1.0,6.0,27,0.00,,,0.00,meteohub,2013-04-06 21:55:00,
2013-04-06 18:00:00,55.0,21.7,30.27,South,171,1.0,6.0,27,0.00,,,0.00,meteohub,2013-04-06 22:00:00,
2013-04-06 18:05:00,54.9,21.6,30.27,South,179,3.0,6.0,27,0.00,,,0.00,meteohub,2013-04-06 22:05:00,
2013-04-06 18:10:00,54.9,24.8,30.27,East,83,3.0,6.0,31,0.00,,,0.00,meteohub,2013-04-06 22:10:00,
2013-04-06 18:15:00,54.7,26.1,30.27,ENE,78,2.0,5.0,33,0.00,,,0.00,meteohub,2013-04-06 22:15:00,
2013-04-06 18:20:00,54.5,25.2,30.27,SSE,163,0.0,5.0,32,0.00,,,0.00,meteohub,2013-04-06 22:20:00,
2013-04-06 18:25:00,54.3,26.6,30.27,South,172,1.0,7.0,34,0.00,,,0.00,meteohub,2013-04-06 22:25:00,
2013-04-06 18:30:00,54.1,26.4,30.27,SE,130,2.0,7.0,34,0.00,,,0.00,meteohub,2013-04-06 22:30:00,
2013-04-06 18:35:00,54.0,25.5,30.27,SSW,200,2.0,8.0,33,0.00,,,0.00,meteohub,2013-04-06 22:35:00,
2013-04-06 18:40:00,53.4,25.0,30.27,SE,140,3.0,8.0,33,0.00,,,0.00,meteohub,2013-04-06 22:40:00,
2013-04-06 18:45:00,53.2,24.1,30.27,South,170,1.0,8.0,32,0.00,,,0.00,meteohub,2013-04-06 22:45:00,
2013-04-06 18:50:00,53.1,25.3,30.28,ESE,118,1.0,7.0,34,0.00,,,0.00,meteohub,2013-04-06 22:50:00,
2013-04-06 18:55:00,52.9,25.9,30.28,East,97,2.0,7.0,35,0.00,,,0.00,meteohub,2013-04-06 22:55:00,
2013-04-06 19:00:00,52.7,25.9,30.28,East,95,0.0,6.0,35,0.00,,,0.00,meteohub,2013-04-06 23:00:00,
2013-04-06 19:07:00,52.3,24.1,30.28,East,92,3.0,6.0,33,0.00,,,0.00,meteohub,2013-04-06 23:07:00,
2013-04-06 19:12:00,52.2,24.6,30.28,East,96,1.0,8.0,34,0.00,,,0.00,meteohub,2013-04-06 23:12:00,
2013-04-06 19:17:00,52.0,24.4,30.28,ENE,77,3.0,8.0,34,0.00,,,0.00,meteohub,2013-04-06 23:17:00,
2013-04-06 19:22:00,51.6,23.4,30.28,SE,144,3.0,6.0,33,0.00,,,0.00,meteohub,2013-04-06 23:22:00,
2013-04-06 19:27:00,51.4,23.4,30.28,ESE,121,3.0,6.0,33,0.00,,,0.00,meteohub,2013-04-06 23:27:00,
2013-04-06 19:32:00,51.1,23.7,30.28,East,92,2.0,7.0,34,0.00,,,0.00,meteohub,2013-04-06 23:32:00,
2013-04-06 19:37:00,50.7,23.4,30.28,NNE,22,1.0,7.0,34,0.00,,,0.00,meteohub,2013-04-06 23:37:00,
2013-04-06 19:42:00,50.4,21.6,30.28,SSE,155,1.0,8.0,32,0.00,,,0.00,meteohub,2013-04-06 23:42:00,
2013-04-06 19:47:00,50.2,22.1,30.28,SE,146,1.0,8.0,33,0.00,,,0.00,meteohub,2013-04-06 23:47:00,
2013-04-06 19:52:00,50.0,22.1,30.28,SSE,167,2.0,8.0,33,0.00,,,0.00,meteohub,2013-04-06 23:52:00,
2013-04-06 19:57:00,49.6,22.5,30.28,East,91,1.0,7.0,34,0.00,,,0.00,meteohub,2013-04-06 23:57:00,
2013-04-06 20:02:00,49.5,21.6,30.29,NE,39,1.0,7.0,33,0.00,,,0.00,meteohub,2013-04-07 00:02:00,
2013-04-06 20:07:00,49.1,21.2,30.29,ESE,113,1.0,7.0,33,0.00,,,0.00,meteohub,2013-04-07 00:07:00,
2013-04-06 20:12:00,48.9,21.7,30.29,SSE,158,0.0,4.0,34,0.00,,,0.00,meteohub,2013-04-07 00:12:00,
2013-04-06 20:17:00,48.6,20.8,30.29,ESE,109,2.0,4.0,33,0.00,,,0.00,meteohub,2013-04-07 00:17:00,
2013-04-06 20:22:00,48.4,21.4,30.29,North,355,0.0,5.0,34,0.00,,,0.00,meteohub,2013-04-07 00:22:00,
2013-04-06 20:27:00,48.0,18.9,30.29,South,171,2.0,5.0,31,0.00,,,0.00,meteohub,2013-04-07 00:27:00,
2013-04-06 20:32:00,47.8,19.4,30.29,SSE,161,1.0,5.0,32,0.00,,,0.00,meteohub,2013-04-07 00:32:00,
2013-04-06 20:38:00,47.8,20.8,30.29,South,170,0.0,4.0,34,0.00,,,0.00,meteohub,2013-04-07 00:38:00,
2013-04-06 20:43:00,47.7,19.9,30.29,SSE,151,0.0,4.0,33,0.00,,,0.00,meteohub,2013-04-07 00:43:00,
2013-04-06 20:48:00,47.3,18.9,30.29,SE,128,1.0,5.0,32,0.00,,,0.00,meteohub,2013-04-07 00:48:00,
2013-04-06 20:53:00,47.1,19.4,30.29,ESE,111,2.0,5.0,33,0.00,,,0.00,meteohub,2013-04-07 00:53:00,
2013-04-06 20:58:00,46.9,20.7,30.29,East,96,0.0,5.0,35,0.00,,,0.00,meteohub,2013-04-07 00:58:00,
2013-04-06 21:03:00,46.8,19.2,30.29,ESE,111,0.0,3.0,33,0.00,,,0.00,meteohub,2013-04-07 01:03:00,
2013-04-06 21:08:00,46.6,19.8,30.29,ESE,121,0.0,3.0,34,0.00,,,0.00,meteohub,2013-04-07 01:08:00,
2013-04-06 21:13:00,46.2,20.1,30.29,SSE,153,1.0,3.0,35,0.00,,,0.00,meteohub,2013-04-07 01:13:00,
2013-04-06 21:18:00,46.0,18.5,30.29,SE,134,0.0,3.0,33,0.00,,,0.00,meteohub,2013-04-07 01:18:00,
2013-04-06 21:23:00,46.0,19.9,30.29,South,189,0.0,3.0,35,0.00,,,0.00,meteohub,2013-04-07 01:23:00,
2013-04-06 21:28:00,45.9,19.0,30.29,South,189,0.0,2.0,34,0.00,,,0.00,meteohub,2013-04-07 01:28:00,
2013-04-06 21:33:00,45.7,19.6,30.29,East,97,1.0,2.0,35,0.00,,,0.00,meteohub,2013-04-07 01:33:00,
2013-04-06 21:38:00,45.7,20.3,30.29,NW,305,0.0,3.0,36,0.00,,,0.00,meteohub,2013-04-07 01:38:00,
2013-04-06 21:43:00,45.5,21.4,30.29,NW,305,0.0,3.0,38,0.00,,,0.00,meteohub,2013-04-07 01:43:00,
2013-04-06 21:48:00,45.3,21.2,30.29,East,82,0.0,3.0,38,0.00,,,0.00,meteohub,2013-04-07 01:48:00,
2013-04-06 21:53:00,45.3,21.7,30.29,SE,128,0.0,4.0,39,0.00,,,0.00,meteohub,2013-04-07 01:53:00,
2013-04-06 21:58:00,45.1,22.3,30.29,SSE,148,0.0,4.0,40,0.00,,,0.00,meteohub,2013-04-07 01:58:00,
2013-04-06 22:03:00,45.1,22.8,30.29,ESE,122,2.0,4.0,41,0.00,,,0.00,meteohub,2013-04-07 02:03:00,
2013-04-06 22:09:00,45.3,23.0,30.29,South,187,3.0,4.0,41,0.00,,,0.00,meteohub,2013-04-07 02:09:00,
2013-04-06 22:15:00,45.9,24.1,30.29,East,100,0.0,5.0,42,0.00,,,0.00,meteohub,2013-04-07 02:15:00,
2013-04-06 22:20:00,46.2,24.4,30.29,NE,53,0.0,6.0,42,0.00,,,0.00,meteohub,2013-04-07 02:20:00,
2013-04-06 22:27:00,46.2,24.4,30.29,SSE,156,0.0,6.0,42,0.00,,,0.00,meteohub,2013-04-07 02:27:00,
2013-04-06 22:32:00,46.2,25.0,30.29,SE,135,1.0,6.0,43,0.00,,,0.00,meteohub,2013-04-07 02:32:00,
2013-04-06 22:37:00,46.2,25.0,30.29,SSE,166,1.0,8.0,43,0.00,,,0.00,meteohub,2013-04-07 02:37:00,
2013-04-06 22:42:00,46.2,26.1,30.29,SSE,149,0.0,8.0,45,0.00,,,0.00,meteohub,2013-04-07 02:42:00,
2013-04-06 22:47:00,46.0,25.9,30.29,West,267,1.0,8.0,45,0.00,,,0.00,meteohub,2013-04-07 02:47:00,
2013-04-06 22:52:00,45.9,25.7,30.29,SE,127,0.0,4.0,45,0.00,,,0.00,meteohub,2013-04-07 02:52:00,
2013-04-06 22:57:00,45.9,26.2,30.29,East,91,3.0,4.0,46,0.00,,,0.00,meteohub,2013-04-07 02:57:00,
2013-04-06 23:02:00,45.7,26.1,30.29,SSE,147,1.0,4.0,46,0.00,,,0.00,meteohub,2013-04-07 03:02:00,
2013-04-06 23:07:00,45.5,25.9,30.29,SSE,153,0.0,3.0,46,0.00,,,0.00,meteohub,2013-04-07 03:07:00,
2013-04-06 23:12:00,45.3,27.3,30.29,South,174,2.0,3.0,49,0.00,,,0.00,meteohub,2013-04-07 03:12:00,
2013-04-06 23:17:00,45.3,26.8,30.29,South,169,2.0,5.0,48,0.00,,,0.00,meteohub,2013-04-07 03:17:00,
2013-04-06 23:22:00,45.3,27.9,30.29,South,179,3.0,5.0,50,0.00,,,0.00,meteohub,2013-04-07 03:22:00,
2013-04-06 23:27:00,45.3,28.8,30.30,SSE,148,1.0,7.0,52,0.00,,,0.00,meteohub,2013-04-07 03:27:00,
2013-04-06 23:32:00,45.1,29.5,30.30,SSW,193,4.0,7.0,54,0.00,,,0.00,meteohub,2013-04-07 03:32:00,
2013-04-06 23:37:00,45.1,30.0,30.29,SSW,198,1.0,6.0,55,0.00,,,0.00,meteohub,2013-04-07 03:37:00,
2013-04-06 23:42:00,45.1,30.4,30.29,NE,51,3.0,7.0,56,0.00,,,0.00,meteohub,2013-04-07 03:42:00,
2013-04-06 23:47:00,45.0,31.1,30.29,South,191,1.0,7.0,58,0.00,,,0.00,meteohub,2013-04-07 03:47:00,
2013-04-06 23:52:00,44.8,31.3,30.29,SSE,161,2.0,6.0,59,0.00,,,0.00,meteohub,2013-04-07 03:52:00,
2013-04-06 23:57:00,44.6,31.6,30.30,SW,218,2.0,6.0,60,0.00,,,0.00,meteohub,2013-04-07 03:57:00,